| time (UTC) | temp F | wind direction | speed knots | gust knots | rain 1hr in | rain 24hr in | rain mn in | humidity % | barometer mb |
| 20260906012709 | 93 | 28 | 0.0 | 0.0 | 0.00 | 0.00 | 0.00 | 44 | 1013.6 |
| 20260906012204 | 93 | 29 | 0.0 | 0.0 | 0.00 | 0.00 | 0.00 | 44 | 1013.5 |
| 20260906011659 | 94 | 29 | 0.0 | 1.7 | 0.00 | 0.00 | 0.00 | 43 | 1013.6 |
| 20260906011154 | 94 | 56 | 0.0 | 0.0 | 0.00 | 0.00 | 0.00 | 43 | 1013.5 |
| 20260906010649 | 94 | 57 | 0.0 | 0.9 | 0.00 | 0.00 | 0.00 | 43 | 1013.4 |
| 20260906010146 | 94 | 322 | 0.0 | 0.0 | 0.00 | 0.00 | 0.00 | 43 | 1013.3 |
| 20260906005645 | 95 | 322 | 0.9 | 0.9 | 0.00 | 0.00 | 0.00 | 43 | 1013.2 |
| 20260906005144 | 95 | 321 | 0.0 | 0.9 | 0.00 | 0.00 | 0.00 | 41 | 1013.3 |
| 20260906004643 | 96 | 321 | 0.9 | 1.7 | 0.00 | 0.00 | 0.00 | 41 | 1013.1 |
| 20260906004139 | 96 | 51 | 1.7 | 1.7 | 0.00 | 0.00 | 0.00 | 41 | 1013.2 |
| 20260906003634 | 96 | 0 | 0.9 | 2.6 | 0.00 | 0.00 | 0.00 | 40 | 1013.2 |
| 20260906003130 | 96 | 1 | 0.9 | 2.6 | 0.00 | 0.00 | 0.00 | 40 | 1013.2 |
| 20260906002625 | 97 | 232 | 0.0 | 0.9 | 0.00 | 0.00 | 0.00 | 40 | 1013.2 |
| 20260906002119 | 97 | 76 | 0.9 | 1.7 | 0.00 | 0.00 | 0.00 | 40 | 1013.2 |
| 20260906001609 | 97 | 71 | 0.9 | 0.9 | 0.00 | 0.00 | 0.00 | 39 | 1013.2 |
| 20260906001108 | 97 | 322 | 0.0 | 0.9 | 0.00 | 0.00 | 0.00 | 39 | 1013.1 |
| 20260906000605 | 97 | 328 | 0.0 | 1.7 | 0.00 | 0.00 | 0.00 | 39 | 1013.1 |
| 20260906000100 | 98 | 316 | 0.9 | 2.6 | 0.00 | 0.00 | 0.00 | 38 | 1013.0 |
| 20260905235559 | 98 | 290 | 0.0 | 3.5 | 0.00 | 0.00 | 0.00 | 38 | 1013.1 |
| 20260905235054 | 99 | 33 | 0.0 | 2.6 | 0.00 | 0.00 | 0.00 | 38 | 1012.8 |
| 20260905234549 | 99 | 58 | 0.9 | 2.6 | 0.00 | 0.00 | 0.00 | 38 | 1013.1 |
| 20260905234044 | 98 | 252 | 0.9 | 1.7 | 0.00 | 0.00 | 0.00 | 37 | 1013.1 |
| 20260905233539 | 98 | 239 | 0.0 | 1.7 | 0.00 | 0.00 | 0.00 | 39 | 1012.8 |
| 20260905233039 | 99 | 63 | 0.0 | 1.7 | 0.00 | 0.00 | 0.00 | 38 | 1012.8 |
| 20260905232534 | 99 | 320 | 1.7 | 3.5 | 0.00 | 0.00 | 0.00 | 39 | 1013.0 |
| 20260905232030 | 99 | 11 | 0.9 | 2.6 | 0.00 | 0.00 | 0.00 | 38 | 1012.6 |
| 20260905231525 | 99 | 46 | 1.7 | 5.2 | 0.00 | 0.00 | 0.00 | 38 | 1012.7 |
| 20260905231021 | 100 | 221 | 0.0 | 2.6 | 0.00 | 0.00 | 0.00 | 38 | 1012.7 |
| 20260905230520 | 100 | 81 | 1.7 | 3.5 | 0.00 | 0.00 | 0.00 | 37 | 1012.6 |
| 20260905230019 | 100 | 221 | 0.0 | 1.7 | 0.00 | 0.00 | 0.00 | 37 | 1012.6 |
| 20260905225514 | 100 | 35 | 0.9 | 2.6 | 0.00 | 0.00 | 0.00 | 38 | 1012.5 |
| 20260905225009 | 100 | 311 | 0.0 | 2.6 | 0.00 | 0.00 | 0.00 | 36 | 1012.7 |
| 20260905224504 | 101 | 24 | 3.5 | 3.5 | 0.00 | 0.00 | 0.00 | 36 | 1012.5 |
| 20260905224003 | 101 | 269 | 0.9 | 2.6 | 0.00 | 0.00 | 0.00 | 36 | 1012.5 |
| 20260905223501 | 101 | 94 | 1.7 | 2.6 | 0.00 | 0.00 | 0.00 | 36 | 1012.4 |
| 20260905222956 | 101 | 260 | 0.9 | 3.5 | 0.00 | 0.00 | 0.00 | 35 | 1012.5 |
| 20260905222456 | 102 | 131 | 0.0 | 1.7 | 0.00 | 0.00 | 0.00 | 34 | 1012.6 |
| 20260905221951 | 102 | 283 | 1.7 | 2.6 | 0.00 | 0.00 | 0.00 | 34 | 1012.5 |
| 20260905221448 | 102 | 179 | 0.9 | 1.7 | 0.00 | 0.00 | 0.00 | 34 | 1012.6 |
| 20260905220944 | 102 | 329 | 0.9 | 2.6 | 0.00 | 0.00 | 0.00 | 35 | 1012.6 |
| 20260905220439 | 103 | 264 | 0.9 | 3.5 | 0.00 | 0.00 | 0.00 | 34 | 1012.7 |
| 20260905215938 | 103 | 357 | 0.0 | 3.5 | 0.00 | 0.00 | 0.00 | 34 | 1012.7 |
| 20260905215434 | 102 | 159 | 0.9 | 6.1 | 0.00 | 0.00 | 0.00 | 34 | 1012.8 |
| 20260905214930 | 102 | 267 | 0.0 | 2.6 | 0.00 | 0.00 | 0.00 | 34 | 1012.8 |
| 20260905214425 | 103 | 20 | 1.7 | 3.5 | 0.00 | 0.00 | 0.00 | 34 | 1013.1 |
| 20260905213920 | 102 | 73 | 0.9 | 7.8 | 0.00 | 0.00 | 0.00 | 35 | 1013.1 |
| 20260905213416 | 102 | 235 | 1.7 | 2.6 | 0.00 | 0.00 | 0.00 | 34 | 1013.0 |
| 20260905212911 | 102 | 263 | 2.6 | 3.5 | 0.00 | 0.00 | 0.00 | 33 | 1013.4 |
| 20260905212406 | 101 | 29 | 0.9 | 7.0 | 0.00 | 0.00 | 0.00 | 36 | 1013.3 |
| 20260905211900 | 102 | 319 | 0.0 | 3.5 | 0.00 | 0.00 | 0.00 | 36 | 1013.5 |
| 20260905211355 | 102 | 88 | 2.6 | 3.5 | 0.00 | 0.00 | 0.00 | 35 | 1013.4 |
| 20260905210852 | 102 | 246 | 3.5 | 6.1 | 0.00 | 0.00 | 0.00 | 35 | 1013.7 |
| 20260905210351 | 102 | 230 | 0.9 | 2.6 | 0.00 | 0.00 | 0.00 | 35 | 1013.5 |
| 20260905205850 | 101 | 54 | 2.6 | 6.1 | 0.00 | 0.00 | 0.00 | 37 | 1013.5 |
| 20260905205345 | 102 | 319 | 1.7 | 6.1 | 0.00 | 0.00 | 0.00 | 36 | 1013.7 |
| 20260905204844 | 101 | 251 | 0.9 | 5.2 | 0.00 | 0.00 | 0.00 | 37 | 1013.6 |
| 20260905204340 | 102 | 30 | 0.9 | 3.5 | 0.00 | 0.00 | 0.00 | 36 | 1013.7 |
| 20260905203833 | 101 | 277 | 0.9 | 3.5 | 0.00 | 0.00 | 0.00 | 36 | 1013.8 |
| 20260905203330 | 101 | 110 | 0.0 | 6.1 | 0.00 | 0.00 | 0.00 | 37 | 1014.0 |
| 20260905202825 | 101 | 358 | 0.0 | 1.7 | 0.00 | 0.00 | 0.00 | 36 | 1013.9 |
| 20260905202320 | 102 | 266 | 1.7 | 3.5 | 0.00 | 0.00 | 0.00 | 36 | 1014.1 |
| 20260905201815 | 100 | 47 | 0.9 | 3.5 | 0.00 | 0.00 | 0.00 | 37 | 1014.1 |
| 20260905201311 | 101 | 94 | 0.0 | 6.1 | 0.00 | 0.00 | 0.00 | 37 | 1014.2 |
| 20260905200810 | 101 | 261 | 2.6 | 3.5 | 0.00 | 0.00 | 0.00 | 36 | 1014.2 |
| 20260905200307 | 102 | 87 | 0.9 | 5.2 | 0.00 | 0.00 | 0.00 | 36 | 1014.5 |
| 20260905195804 | 101 | 291 | 0.9 | 3.5 | 0.00 | 0.00 | 0.00 | 37 | 1014.5 |
| 20260905195300 | 101 | 245 | 2.6 | 6.1 | 0.00 | 0.00 | 0.00 | 36 | 1014.5 |
| 20260905194755 | 101 | 201 | 2.6 | 6.1 | 0.00 | 0.00 | 0.00 | 36 | 1014.6 |
| 20260905194254 | 101 | 252 | 2.6 | 5.2 | 0.00 | 0.00 | 0.00 | 37 | 1014.8 |
| 20260905193749 | 100 | 109 | 3.5 | 3.5 | 0.00 | 0.00 | 0.00 | 38 | 1014.7 |
| 20260905193243 | 101 | 109 | 1.7 | 3.5 | 0.00 | 0.00 | 0.00 | 37 | 1014.8 |
| 20260905192738 | 101 | 262 | 3.5 | 7.0 | 0.00 | 0.00 | 0.00 | 37 | 1014.9 |
| 20260905192235 | 100 | 240 | 0.9 | 3.5 | 0.00 | 0.00 | 0.00 | 38 | 1014.9 |
| 20260905191734 | 101 | 145 | 0.0 | 3.5 | 0.00 | 0.00 | 0.00 | 36 | 1015.1 |
| 20260905191232 | 100 | 262 | 3.5 | 6.1 | 0.00 | 0.00 | 0.00 | 37 | 1015.1 |
| 20260905190731 | 101 | 294 | 1.7 | 5.2 | 0.00 | 0.00 | 0.00 | 38 | 1015.1 |
| 20260905190230 | 100 | 245 | 0.9 | 2.6 | 0.00 | 0.00 | 0.00 | 38 | 1015.2 |
| 20260905185729 | 100 | 226 | 0.9 | 2.6 | 0.00 | 0.00 | 0.00 | 39 | 1015.3 |
| 20260905185224 | 99 | 303 | 2.6 | 5.2 | 0.00 | 0.00 | 0.00 | 38 | 1015.5 |
| 20260905184719 | 100 | 57 | 3.5 | 5.2 | 0.00 | 0.00 | 0.00 | 39 | 1015.6 |
| 20260905184217 | 100 | 119 | 0.9 | 1.7 | 0.00 | 0.00 | 0.00 | 39 | 1015.6 |
| 20260905183712 | 100 | 28 | 0.9 | 1.7 | 0.00 | 0.00 | 0.00 | 39 | 1015.6 |
| 20260905183207 | 101 | 344 | 0.0 | 1.7 | 0.00 | 0.00 | 0.00 | 38 | 1015.7 |
| 20260905182701 | 98 | 91 | 0.0 | 2.6 | 0.00 | 0.00 | 0.00 | 42 | 1015.8 |
| 20260905182200 | 100 | 53 | 3.5 | 5.2 | 0.00 | 0.00 | 0.00 | 40 | 1015.9 |
| 20260905181655 | 100 | 304 | 4.3 | 6.1 | 0.00 | 0.00 | 0.00 | 39 | 1015.9 |
| 20260905181149 | 99 | 24 | 3.5 | 6.1 | 0.00 | 0.00 | 0.00 | 39 | 1015.9 |
| 20260905180644 | 97 | 204 | 0.9 | 1.7 | 0.00 | 0.00 | 0.00 | 42 | 1015.9 |
| 20260905180139 | 98 | 259 | 2.6 | 5.2 | 0.00 | 0.00 | 0.00 | 42 | 1015.8 |
| 20260905175638 | 98 | 92 | 1.7 | 2.6 | 0.00 | 0.00 | 0.00 | 42 | 1015.8 |
| 20260905175134 | 98 | 51 | 1.7 | 2.6 | 0.00 | 0.00 | 0.00 | 44 | 1016.1 |
| 20260905174629 | 98 | 240 | 0.9 | 2.6 | 0.00 | 0.00 | 0.00 | 42 | 1016.3 |
| 20260905174125 | 98 | 9 | 2.6 | 3.5 | 0.00 | 0.00 | 0.00 | 44 | 1016.4 |
| 20260905173620 | 97 | 78 | 1.7 | 3.5 | 0.00 | 0.00 | 0.00 | 43 | 1016.3 |
| 20260905173115 | 98 | 229 | 2.6 | 3.5 | 0.00 | 0.00 | 0.00 | 42 | 1016.4 |
| 20260905172609 | 96 | 249 | 0.9 | 3.5 | 0.00 | 0.00 | 0.00 | 44 | 1016.4 |
| 20260905172104 | 98 | 48 | 2.6 | 3.5 | 0.00 | 0.00 | 0.00 | 43 | 1016.4 |
| 20260905171601 | 98 | 221 | 2.6 | 5.2 | 0.00 | 0.00 | 0.00 | 43 | 1016.5 |
| 20260905171056 | 96 | 30 | 0.0 | 2.6 | 0.00 | 0.00 | 0.00 | 45 | 1016.6 |
| 20260905170553 | 97 | 49 | 2.6 | 5.2 | 0.00 | 0.00 | 0.00 | 46 | 1016.5 |
| 20260905170048 | 97 | 180 | 0.9 | 2.6 | 0.00 | 0.00 | 0.00 | 45 | 1016.6 |
| 20260905165543 | 96 | 225 | 3.5 | 6.1 | 0.00 | 0.00 | 0.00 | 45 | 1016.5 |
| 20260905165037 | 96 | 161 | 0.0 | 3.5 | 0.00 | 0.00 | 0.00 | 45 | 1016.4 |
| 20260905164532 | 96 | 48 | 0.9 | 2.6 | 0.00 | 0.00 | 0.00 | 45 | 1016.6 |
| 20260905164027 | 97 | 305 | 4.3 | 5.2 | 0.00 | 0.00 | 0.00 | 45 | 1016.7 |
| 20260905163523 | 98 | 152 | 0.9 | 1.7 | 0.00 | 0.00 | 0.00 | 43 | 1016.7 |
| 20260905163019 | 96 | 232 | 0.9 | 1.7 | 0.00 | 0.00 | 0.00 | 45 | 1016.7 |
| 20260905162515 | 96 | 234 | 0.9 | 3.5 | 0.00 | 0.00 | 0.00 | 46 | 1016.6 |
| 20260905162009 | 96 | 64 | 0.0 | 2.6 | 0.00 | 0.00 | 0.00 | 46 | 1016.7 |
| 20260905161508 | 96 | 262 | 0.9 | 2.6 | 0.00 | 0.00 | 0.00 | 45 | 1016.7 |
| 20260905161006 | 95 | 268 | 1.7 | 2.6 | 0.00 | 0.00 | 0.00 | 47 | 1016.8 |
| 20260905160500 | 94 | 279 | 2.6 | 3.5 | 0.00 | 0.00 | 0.00 | 48 | 1016.7 |
| 20260905160000 | 94 | 224 | 0.9 | 3.5 | 0.00 | 0.00 | 0.00 | 48 | 1016.7 |
| 20260905155455 | 94 | 232 | 1.7 | 3.5 | 0.00 | 0.00 | 0.00 | 48 | 1016.5 |
| 20260905154953 | 94 | 235 | 1.7 | 3.5 | 0.00 | 0.00 | 0.00 | 50 | 1016.4 |
| 20260905154448 | 93 | 279 | 1.7 | 3.5 | 0.00 | 0.00 | 0.00 | 50 | 1016.5 |
| 20260905153943 | 93 | 199 | 1.7 | 2.6 | 0.00 | 0.00 | 0.00 | 50 | 1016.5 |
| 20260905153440 | 92 | 93 | 1.7 | 5.2 | 0.00 | 0.00 | 0.00 | 51 | 1016.6 |
| 20260905152939 | 93 | 225 | 3.5 | 5.2 | 0.00 | 0.00 | 0.00 | 50 | 1016.5 |
| 20260905152439 | 92 | 133 | 0.0 | 0.9 | 0.00 | 0.00 | 0.00 | 51 | 1016.4 |
| 20260905151934 | 92 | 155 | 1.7 | 3.5 | 0.00 | 0.00 | 0.00 | 51 | 1016.5 |
| 20260905151430 | 92 | 188 | 0.9 | 2.6 | 0.00 | 0.00 | 0.00 | 52 | 1016.4 |
| 20260905150925 | 91 | 254 | 1.7 | 3.5 | 0.00 | 0.00 | 0.00 | 53 | 1016.4 |
| 20260905150424 | 90 | 35 | 0.0 | 2.6 | 0.00 | 0.00 | 0.00 | 54 | 1016.4 |
| 20260905145920 | 91 | 237 | 1.7 | 3.5 | 0.00 | 0.00 | 0.00 | 53 | 1016.5 |
| 20260905145415 | 90 | 320 | 1.7 | 3.5 | 0.00 | 0.00 | 0.00 | 54 | 1016.6 |
| 20260905144909 | 89 | 308 | 0.0 | 2.6 | 0.00 | 0.00 | 0.00 | 54 | 1016.5 |
| 20260905144405 | 89 | 235 | 2.6 | 3.5 | 0.00 | 0.00 | 0.00 | 55 | 1016.4 |
| 20260905143903 | 89 | 261 | 2.6 | 2.6 | 0.00 | 0.00 | 0.00 | 55 | 1016.3 |
| 20260905143357 | 89 | 307 | 0.9 | 2.6 | 0.00 | 0.00 | 0.00 | 56 | 1016.4 |
| 20260905142852 | 88 | 138 | 0.9 | 3.5 | 0.00 | 0.00 | 0.00 | 56 | 1016.4 |
| 20260905142350 | 88 | 238 | 0.9 | 3.5 | 0.00 | 0.00 | 0.00 | 57 | 1016.5 |
| 20260905141847 | 87 | 254 | 0.9 | 2.6 | 0.00 | 0.00 | 0.00 | 58 | 1016.3 |
| 20260905141342 | 87 | 114 | 0.9 | 1.7 | 0.00 | 0.00 | 0.00 | 58 | 1016.2 |
| 20260905140838 | 87 | 322 | 0.9 | 1.7 | 0.00 | 0.00 | 0.00 | 60 | 1016.3 |
| 20260905140337 | 86 | 273 | 0.9 | 2.6 | 0.00 | 0.00 | 0.00 | 61 | 1016.3 |
| 20260905135835 | 86 | 226 | 0.0 | 2.6 | 0.00 | 0.00 | 0.00 | 61 | 1016.3 |
| 20260905135331 | 85 | 172 | 0.9 | 1.7 | 0.00 | 0.00 | 0.00 | 61 | 1016.6 |
| 20260905134827 | 85 | 184 | 1.7 | 2.6 | 0.00 | 0.00 | 0.00 | 61 | 1016.2 |
| 20260905134320 | 84 | 240 | 0.0 | 2.6 | 0.00 | 0.00 | 0.00 | 63 | 1016.2 |
| 20260905133815 | 84 | 171 | 1.7 | 2.6 | 0.00 | 0.00 | 0.00 | 63 | 1015.9 |
| 20260905133310 | 84 | 82 | 0.9 | 0.9 | 0.00 | 0.00 | 0.00 | 64 | 1015.9 |
| 20260905132809 | 83 | 300 | 0.0 | 2.6 | 0.00 | 0.00 | 0.00 | 65 | 1016.4 |
| 20260905132306 | 83 | 288 | 0.9 | 1.7 | 0.00 | 0.00 | 0.00 | 65 | 1016.1 |
| 20260905131759 | 82 | 265 | 1.7 | 2.6 | 0.00 | 0.00 | 0.00 | 66 | 1016.2 |
| 20260905131255 | 81 | 259 | 0.9 | 1.7 | 0.00 | 0.00 | 0.00 | 67 | 1016.2 |
| 20260905130750 | 81 | 312 | 0.0 | 1.7 | 0.00 | 0.00 | 0.00 | 68 | 1015.9 |
| 20260905130249 | 81 | 207 | 1.7 | 1.7 | 0.00 | 0.00 | 0.00 | 67 | 1016.2 |
| 20260905125744 | 81 | 250 | 0.9 | 0.9 | 0.00 | 0.00 | 0.00 | 68 | 1015.9 |
| 20260905125239 | 80 | 87 | 0.9 | 0.9 | 0.00 | 0.00 | 0.00 | 68 | 1015.6 |
| 20260905124736 | 80 | 211 | 0.0 | 1.7 | 0.00 | 0.00 | 0.00 | 68 | 1015.7 |
| 20260905124231 | 80 | 249 | 0.9 | 1.7 | 0.00 | 0.00 | 0.00 | 68 | 1015.8 |
| 20260905123726 | 80 | 268 | 0.0 | 1.7 | 0.00 | 0.00 | 0.00 | 69 | 1015.7 |
| 20260905123223 | 80 | 256 | 0.0 | 0.9 | 0.00 | 0.00 | 0.00 | 69 | 1015.5 |
| 20260905122723 | 80 | 74 | 0.9 | 1.7 | 0.00 | 0.00 | 0.00 | 69 | 1015.7 |
| 20260905122217 | 80 | 90 | 0.0 | 0.9 | 0.00 | 0.00 | 0.00 | 70 | 1015.4 |
| 20260905121712 | 80 | 90 | 0.0 | 0.9 | 0.00 | 0.00 | 0.00 | 70 | 1015.7 |
| 20260905121208 | 80 | 90 | 0.0 | 0.0 | 0.00 | 0.00 | 0.00 | 69 | 1015.5 |
| 20260905120707 | 80 | 90 | 0.0 | 0.0 | 0.00 | 0.00 | 0.00 | 69 | 1015.4 |
| 20260905120201 | 80 | 90 | 0.0 | 0.9 | 0.00 | 0.00 | 0.00 | 69 | 1015.3 |
| 20260905115656 | 80 | 287 | 0.0 | 0.0 | 0.00 | 0.00 | 0.00 | 69 | 1015.5 |
| 20260905115151 | 80 | 185 | 0.0 | 0.0 | 0.00 | 0.00 | 0.00 | 68 | 1015.2 |
| 20260905114651 | 80 | 189 | 0.0 | 0.9 | 0.00 | 0.00 | 0.00 | 68 | 1015.1 |
| 20260905114149 | 80 | 183 | 0.9 | 0.9 | 0.00 | 0.00 | 0.00 | 68 | 1015.3 |
| 20260905113643 | 80 | 278 | 0.0 | 0.9 | 0.00 | 0.00 | 0.00 | 68 | 1015.1 |
| 20260905113139 | 81 | 183 | 0.0 | 0.9 | 0.00 | 0.00 | 0.00 | 67 | 1015.3 |
| 20260905112633 | 81 | 196 | 0.0 | 0.0 | 0.00 | 0.00 | 0.00 | 67 | 1015.2 |
| 20260905112129 | 81 | 253 | 0.0 | 2.6 | 0.00 | 0.00 | 0.00 | 67 | 1015.3 |
| 20260905111624 | 81 | 207 | 0.0 | 0.9 | 0.00 | 0.00 | 0.00 | 66 | 1015.4 |
| 20260905111123 | 81 | 200 | 0.0 | 1.7 | 0.00 | 0.00 | 0.00 | 66 | 1015.2 |
| 20260905110622 | 82 | 248 | 0.0 | 1.7 | 0.00 | 0.00 | 0.00 | 66 | 1015.5 |
| 20260905110117 | 82 | 296 | 0.0 | 0.9 | 0.00 | 0.00 | 0.00 | 65 | 1015.6 |
| 20260905105618 | 82 | 236 | 0.9 | 1.7 | 0.00 | 0.00 | 0.00 | 65 | 1015.3 |
| 20260905105116 | 82 | 258 | 0.0 | 2.6 | 0.00 | 0.00 | 0.00 | 65 | 1015.4 |
| 20260905104612 | 82 | 54 | 0.0 | 2.6 | 0.00 | 0.00 | 0.00 | 64 | 1015.0 |
| 20260905104107 | 82 | 292 | 0.9 | 2.6 | 0.00 | 0.00 | 0.00 | 64 | 1015.3 |
| 20260905103602 | 82 | 258 | 1.7 | 2.6 | 0.00 | 0.00 | 0.00 | 64 | 1015.3 |
| 20260905103058 | 83 | 286 | 0.0 | 0.9 | 0.00 | 0.00 | 0.00 | 64 | 1015.5 |
| 20260905102548 | 83 | 26 | 0.9 | 1.7 | 0.00 | 0.00 | 0.00 | 63 | 1015.2 |
| 20260905102045 | 83 | 47 | 0.0 | 0.9 | 0.00 | 0.00 | 0.00 | 63 | 1015.4 |
| 20260905101543 | 83 | 198 | 1.7 | 1.7 | 0.00 | 0.00 | 0.00 | 63 | 1015.3 |
| 20260905101041 | 83 | 257 | 0.9 | 1.7 | 0.00 | 0.00 | 0.00 | 63 | 1015.1 |
| 20260905100538 | 83 | 271 | 0.9 | 1.7 | 0.00 | 0.00 | 0.00 | 62 | 1015.2 |
| 20260905100037 | 83 | 112 | 0.0 | 0.9 | 0.00 | 0.00 | 0.00 | 62 | 1015.2 |
| 20260905095532 | 84 | 27 | 0.9 | 1.7 | 0.00 | 0.00 | 0.00 | 62 | 1015.2 |
| 20260905095027 | 84 | 101 | 0.9 | 2.6 | 0.00 | 0.00 | 0.00 | 61 | 1015.5 |
| 20260905094522 | 84 | 213 | 0.9 | 2.6 | 0.00 | 0.00 | 0.00 | 61 | 1015.4 |
| 20260905094021 | 84 | 138 | 0.0 | 2.6 | 0.00 | 0.00 | 0.00 | 61 | 1015.3 |
| 20260905093516 | 84 | 6 | 1.7 | 3.5 | 0.00 | 0.00 | 0.00 | 60 | 1015.3 |
| 20260905093013 | 84 | 358 | 0.0 | 0.9 | 0.00 | 0.00 | 0.00 | 60 | 1015.1 |
| 20260905092512 | 85 | 300 | 1.7 | 1.7 | 0.00 | 0.00 | 0.00 | 60 | 1015.2 |
| 20260905092009 | 85 | 337 | 1.7 | 5.2 | 0.00 | 0.00 | 0.00 | 60 | 1015.2 |
| 20260905091508 | 85 | 244 | 0.9 | 0.9 | 0.00 | 0.00 | 0.00 | 60 | 1015.3 |
| 20260905091002 | 85 | 296 | 0.0 | 0.9 | 0.00 | 0.00 | 0.00 | 59 | 1015.1 |
| 20260905090457 | 85 | 301 | 0.9 | 2.6 | 0.00 | 0.00 | 0.00 | 59 | 1015.4 |
| 20260905085956 | 85 | 244 | 1.7 | 2.6 | 0.00 | 0.00 | 0.00 | 59 | 1015.3 |
| 20260905085455 | 85 | 266 | 0.9 | 2.6 | 0.00 | 0.00 | 0.00 | 59 | 1015.3 |
| 20260905084951 | 85 | 112 | 0.9 | 3.5 | 0.00 | 0.00 | 0.00 | 59 | 1015.1 |
| 20260905084451 | 85 | 262 | 1.7 | 3.5 | 0.00 | 0.00 | 0.00 | 59 | 1015.2 |
| 20260905083950 | 85 | 337 | 0.9 | 1.7 | 0.00 | 0.00 | 0.00 | 59 | 1015.1 |
| 20260905083446 | 85 | 240 | 0.0 | 1.7 | 0.00 | 0.00 | 0.00 | 59 | 1015.1 |
| 20260905082942 | 85 | 261 | 0.9 | 1.7 | 0.00 | 0.00 | 0.00 | 59 | 1015.0 |
| 20260905082438 | 86 | 27 | 0.9 | 3.5 | 0.00 | 0.00 | 0.00 | 58 | 1015.0 |
| 20260905081933 | 86 | 226 | 0.0 | 2.6 | 0.00 | 0.00 | 0.00 | 59 | 1015.0 |
| 20260905081428 | 86 | 238 | 0.0 | 2.6 | 0.00 | 0.00 | 0.00 | 58 | 1015.0 |
| 20260905080927 | 86 | 166 | 0.9 | 5.2 | 0.00 | 0.00 | 0.00 | 58 | 1014.9 |
| 20260905080422 | 86 | 310 | 1.7 | 2.6 | 0.00 | 0.00 | 0.00 | 58 | 1014.9 |
| 20260905075920 | 86 | 286 | 0.0 | 1.7 | 0.00 | 0.00 | 0.00 | 58 | 1014.9 |
| 20260905075415 | 86 | 271 | 1.7 | 5.2 | 0.00 | 0.00 | 0.00 | 58 | 1014.8 |
| 20260905074914 | 86 | 47 | 2.6 | 2.6 | 0.00 | 0.00 | 0.00 | 58 | 1014.8 |
| 20260905074410 | 85 | 349 | 0.9 | 1.7 | 0.00 | 0.00 | 0.00 | 58 | 1014.8 |
| 20260905073906 | 85 | 2 | 0.9 | 1.7 | 0.00 | 0.00 | 0.00 | 58 | 1014.7 |
| 20260905073401 | 86 | 275 | 0.9 | 3.5 | 0.00 | 0.00 | 0.00 | 58 | 1014.7 |
| 20260905072856 | 86 | 310 | 0.0 | 0.9 | 0.00 | 0.00 | 0.00 | 58 | 1014.9 |
| 20260905072350 | 85 | 97 | 0.9 | 1.7 | 0.00 | 0.00 | 0.00 | 59 | 1014.9 |
| 20260905071846 | 85 | 300 | 1.7 | 2.6 | 0.00 | 0.00 | 0.00 | 58 | 1015.0 |
| 20260905071343 | 85 | 292 | 0.0 | 1.7 | 0.00 | 0.00 | 0.00 | 59 | 1015.0 |
| 20260905070842 | 85 | 12 | 0.9 | 0.9 | 0.00 | 0.00 | 0.00 | 59 | 1014.8 |
| 20260905070339 | 85 | 179 | 0.0 | 0.9 | 0.00 | 0.00 | 0.00 | 59 | 1015.1 |
| 20260905065838 | 85 | 226 | 0.0 | 0.0 | 0.00 | 0.00 | 0.00 | 60 | 1015.0 |
| 20260905065336 | 85 | 234 | 0.0 | 1.7 | 0.00 | 0.00 | 0.00 | 59 | 1015.1 |
| 20260905064832 | 85 | 139 | 1.7 | 1.7 | 0.00 | 0.00 | 0.00 | 58 | 1015.0 |
| 20260905064328 | 85 | 324 | 0.0 | 3.5 | 0.00 | 0.00 | 0.00 | 58 | 1015.0 |
| 20260905063826 | 85 | 312 | 0.9 | 0.9 | 0.00 | 0.00 | 0.00 | 59 | 1014.9 |
| 20260905063322 | 86 | 274 | 0.9 | 0.9 | 0.00 | 0.00 | 0.00 | 58 | 1015.0 |
| 20260905062819 | 85 | 5 | 0.9 | 1.7 | 0.00 | 0.00 | 0.00 | 58 | 1014.9 |
| 20260905062313 | 85 | 264 | 0.9 | 2.6 | 0.00 | 0.00 | 0.00 | 58 | 1015.1 |
| 20260905061808 | 86 | 223 | 0.0 | 1.7 | 0.00 | 0.00 | 0.00 | 58 | 1015.1 |
| 20260905061307 | 86 | 34 | 0.0 | 0.9 | 0.00 | 0.00 | 0.00 | 58 | 1015.1 |
| 20260905060802 | 86 | 162 | 0.0 | 1.7 | 0.00 | 0.00 | 0.00 | 57 | 1015.2 |
| 20260905060253 | 86 | 260 | 1.7 | 2.6 | 0.00 | 0.00 | 0.00 | 57 | 1015.2 |
| 20260905055752 | 86 | 252 | 0.0 | 1.7 | 0.00 | 0.00 | 0.00 | 57 | 1015.2 |
| 20260905055247 | 86 | 6 | 0.9 | 2.6 | 0.00 | 0.00 | 0.00 | 57 | 1015.3 |
| 20260905054742 | 86 | 218 | 1.7 | 2.6 | 0.00 | 0.00 | 0.00 | 56 | 1015.2 |
| 20260905054238 | 86 | 233 | 0.9 | 1.7 | 0.00 | 0.00 | 0.00 | 56 | 1015.1 |
| 20260905053737 | 87 | 200 | 0.9 | 2.6 | 0.00 | 0.00 | 0.00 | 56 | 1015.0 |
| 20260905053233 | 87 | 192 | 0.9 | 0.9 | 0.00 | 0.00 | 0.00 | 56 | 1015.2 |
| 20260905052726 | 87 | 164 | 0.9 | 1.7 | 0.00 | 0.00 | 0.00 | 56 | 1015.1 |
| 20260905052222 | 87 | 291 | 0.9 | 1.7 | 0.00 | 0.00 | 0.00 | 55 | 1015.2 |
| 20260905051721 | 87 | 182 | 0.9 | 1.7 | 0.00 | 0.00 | 0.00 | 55 | 1015.1 |
| 20260905051218 | 87 | 162 | 1.7 | 1.7 | 0.00 | 0.00 | 0.00 | 55 | 1015.0 |
| 20260905050714 | 87 | 305 | 0.0 | 2.6 | 0.00 | 0.00 | 0.00 | 55 | 1015.2 |
| 20260905050211 | 88 | 37 | 0.9 | 2.6 | 0.00 | 0.00 | 0.00 | 55 | 1015.1 |
| 20260905045710 | 88 | 130 | 0.9 | 1.7 | 0.00 | 0.00 | 0.00 | 54 | 1015.1 |
| 20260905045206 | 88 | 99 | 1.7 | 2.6 | 0.00 | 0.00 | 0.00 | 54 | 1015.2 |
| 20260905044700 | 88 | 103 | 0.9 | 0.9 | 0.00 | 0.00 | 0.00 | 54 | 1015.1 |
| 20260905044155 | 88 | 303 | 1.7 | 2.6 | 0.00 | 0.00 | 0.00 | 54 | 1015.1 |
| 20260905043654 | 88 | 167 | 0.9 | 3.5 | 0.00 | 0.00 | 0.00 | 54 | 1015.1 |
| 20260905043149 | 89 | 128 | 0.0 | 1.7 | 0.00 | 0.00 | 0.00 | 54 | 1015.2 |
| 20260905042649 | 89 | 303 | 1.7 | 2.6 | 0.00 | 0.00 | 0.00 | 53 | 1015.2 |
| 20260905042143 | 89 | 145 | 1.7 | 2.6 | 0.00 | 0.00 | 0.00 | 53 | 1015.1 |
| 20260905041639 | 89 | 142 | 2.6 | 3.5 | 0.00 | 0.00 | 0.00 | 53 | 1015.3 |
| 20260905041134 | 89 | 84 | 0.0 | 1.7 | 0.00 | 0.00 | 0.00 | 53 | 1015.1 |
| 20260905040629 | 89 | 330 | 0.9 | 2.6 | 0.00 | 0.00 | 0.00 | 53 | 1014.9 |
| 20260905040127 | 89 | 25 | 0.0 | 3.5 | 0.00 | 0.00 | 0.00 | 53 | 1014.9 |
| 20260905035622 | 90 | 264 | 1.7 | 2.6 | 0.00 | 0.00 | 0.00 | 52 | 1015.1 |
| 20260905035119 | 90 | 228 | 0.0 | 3.5 | 0.00 | 0.00 | 0.00 | 52 | 1015.1 |
| 20260905034614 | 90 | 46 | 3.5 | 5.2 | 0.00 | 0.00 | 0.00 | 52 | 1015.0 |
| 20260905034109 | 90 | 294 | 0.9 | 1.7 | 0.00 | 0.00 | 0.00 | 52 | 1014.9 |
| 20260905033608 | 90 | 167 | 0.9 | 5.2 | 0.00 | 0.00 | 0.00 | 52 | 1014.8 |
| 20260905033104 | 90 | 137 | 1.7 | 5.2 | 0.00 | 0.00 | 0.00 | 52 | 1014.9 |
| 20260905032603 | 90 | 70 | 0.0 | 2.6 | 0.00 | 0.00 | 0.00 | 52 | 1014.8 |
| 20260905032058 | 90 | 26 | 1.7 | 3.5 | 0.00 | 0.00 | 0.00 | 52 | 1014.8 |
| 20260905031554 | 90 | 329 | 1.7 | 2.6 | 0.00 | 0.00 | 0.00 | 52 | 1014.6 |
| 20260905031054 | 90 | 344 | 0.9 | 3.5 | 0.00 | 0.00 | 0.00 | 51 | 1014.6 |
| 20260905030549 | 90 | 42 | 0.9 | 1.7 | 0.00 | 0.00 | 0.00 | 51 | 1014.4 |
| 20260905030043 | 90 | 173 | 1.7 | 2.6 | 0.00 | 0.00 | 0.00 | 51 | 1014.3 |
| 20260905025538 | 91 | 267 | 0.9 | 2.6 | 0.00 | 0.00 | 0.00 | 51 | 1014.1 |
| 20260905025035 | 91 | 149 | 0.9 | 3.5 | 0.00 | 0.00 | 0.00 | 50 | 1014.3 |
| 20260905024530 | 91 | 290 | 1.7 | 3.5 | 0.00 | 0.00 | 0.00 | 50 | 1014.2 |
| 20260905024025 | 91 | 60 | 0.9 | 2.6 | 0.00 | 0.00 | 0.00 | 50 | 1014.0 |
| 20260905023521 | 91 | 345 | 0.9 | 1.7 | 0.00 | 0.00 | 0.00 | 50 | 1014.0 |
| 20260905023020 | 91 | 163 | 0.0 | 3.5 | 0.00 | 0.00 | 0.00 | 49 | 1014.1 |
| 20260905022515 | 91 | 32 | 0.9 | 1.7 | 0.00 | 0.00 | 0.00 | 49 | 1013.8 |
| 20260905022010 | 91 | 273 | 1.7 | 2.6 | 0.00 | 0.00 | 0.00 | 49 | 1013.9 |
| 20260905021510 | 92 | 352 | 0.9 | 1.7 | 0.00 | 0.00 | 0.00 | 49 | 1013.7 |
| 20260905021005 | 92 | 226 | 1.7 | 1.7 | 0.00 | 0.00 | 0.00 | 49 | 1013.7 |
| 20260905020459 | 92 | 275 | 1.7 | 1.7 | 0.00 | 0.00 | 0.00 | 48 | 1013.5 |
| 20260905015954 | 92 | 219 | 0.9 | 2.6 | 0.00 | 0.00 | 0.00 | 48 | 1013.6 |
| 20260905015452 | 92 | 36 | 1.7 | 5.2 | 0.00 | 0.00 | 0.00 | 48 | 1013.5 |
| 20260905014952 | 92 | 117 | 0.0 | 3.5 | 0.00 | 0.00 | 0.00 | 48 | 1013.4 |
| 20260905014447 | 93 | 177 | 0.0 | 0.9 | 0.00 | 0.00 | 0.00 | 48 | 1013.3 |
| 20260905013942 | 93 | 62 | 0.9 | 2.6 | 0.00 | 0.00 | 0.00 | 47 | 1013.3 |
| 20260905013439 | 93 | 45 | 2.6 | 3.5 | 0.00 | 0.00 | 0.00 | 47 | 1013.2 |